SCP
0 0 0 0 0 0 0 0 0 0 0 0 0 1 0 0 0 0 0 0 0 0 0 0 0 0 0 0 0 0 0 0 0 0 0 0 0 0 0 0 0 0 0 0
0 0 0 0 0 0 0 0 0 0 0 0 0 0 0 0 0 0 0 0 0 0 0 0 0 0 0 0 0 0 0 0 0 0 0 0 0 0 0 0 0 0 0 0
0 0 0 0 0 0 0 0 0 0 0 0 0 0 0 0 0 0 0 0 0 0 0 0 0 0 0 0 0 0 0 0 0 0 0 0 0 0 0 0 0 0 0 0
0 0 0 0 0 0 0 0 0 0 0 0 0 0 0 0 0 0 0 0 0 0 0 0 0 0 0 0 0 0 0 0 0 0 0 0 0 0 0 0 0 0 0 0
0 0 0 0 0 0 0 0 0 0 0 0 0 0 0 0 0 0 0 0 0 0 0 0 0 0 0 0 0 0 0 0 0 0 0 0 0 0 0 0 0 0 0 0
0 0 0 0 0 0 0 0 0 0 0 0 0 0 0 0 0 0 0 0 0 0 0 0 0 0 0 0 0 0 0 0 0 0 0 0 0 0 0 0 0 0 0 0
0 0 0 0 0 0 0 0 0 0 0 0 0 0 0 0 0 0 0 0 0 0 0 0 0 0 0 0 0 0 0 0 0 0 0 0 0 0 0 0 0 0 0 0
0 0 0 0 0 0 0 0 0 0 0 0 0 0 0 0 0 0 0 0 0 0 0 0 0 0 0 0 0 0 0 0 0 0 0 0 0 0 0 0 0 0 0 0
0 0 0 0 0 0 0 0 0 0 0 0 0 0 0 0 0 0 0 0 0 0 0 0 0 0 0 0 0 0 0 0 0 0 0 0 0 0 0 0 0 0 0 0
0 0 0 0 0 0 0 0 0 0 0 0 0 0 0 0 0 0 0 0 0 0 0 0 0 0 0 0 0 0 0 0 0 0 0 0 0 0 0 0 0 0 0 0
0 0 0 0 0 0 0 0 0 0 0 0 0 0 0 0 0 0 0 0 0 0 0 0 0 0 0 0 0 0 0 0 0 0 0 0 0 0 0 0 0 0 0 0
0 0 0 0 0 0 0 0 0 0 0 0 0 0 0 0 0 0 0 0 0 0 0 0 0 0 0 0 0 0 0 0 0 0 0 0 0 0 0 0 0 0 0 0
0 0 0 0 0 0 0 0 0 0 0 0 0 0 0 0 0 0 0 0 0 0 0 0 0 0 0 0 0 0 0 0 0 0 0 0 0 0 0 0 0 0 0 0
0 0 0 0 0 0 0 0 0 0 0 0 0 0 0 0 0 0 0 0 0 0 0 0 0 0 0 0 0 0 0 0 0 0 0 0 0 0 0 0 0 0 0 0
0 0 0 0 0 0 0 0 0 0 0 0 0 0 0 0 0 0 0 0 0 0 0 0 0 0 0 0 0 0 0 0 0 0 0 0 0 0 0 0 0 0 0 0
0 0 0 0 0 0 0 0 0 0 0 0 0 0 0 0 0 0 0 0 0 0 0 0 0 0 0 0 0 0 0 0 0 0 0 0 0 0 0 0 0 0 0 0
0 0 0 0 0 0 0 0 0 0 0 0 0 0 0 0 0 0 0 0 0 0 0 0 0 0 0 0 0 0 0 0 0 0 0 0 0 0 0 0 0 0 0 0
0 0 0 0 0 0 0 0 0 0 0 0 0 0 0 0 0 0 0 0 0 0 0 0 0 0 0 0 0 0 0 0 0 0 0 0 0 0 0 0 0 0 0 0
0 0 0 0 0 0 0 0 0 0 0 0 0 0 0 0 0 0 0 0 0 0 0 0 0 0 0 0 0 0 0 0 0 0 0 0 0 0 0 0 0 0 0 0
0 0 0 0 0 0 0 0 0 0 0 0 0 0 0 0 0 0 0 0 0 0 0 0 0 0 0 0 0 0 0 0 0 0 0 0 0 0 0 0 0 0 0 0
0 0 0 0 0 0 0 0 0 0 0 0 0 0 0 0 0 0 0 0 0 0 0 0 0 0 0 0 0 0 0 0 0 0 0 0 0 0 0 0 0 0 0 0
0 0 0 0 0 0 0 0 0 0 0 0 0 0 0 0 0 0 0 0 0 0 0 0 0 0 0 0 0 0 0 0 0 0 0 0 0 0 0 0 0 0 0 0
0 0 0 0 0 0 0 0 0 0 0 0 0 0 0 0 0 0 0 0 0 0 0 0 -0 -0 0 0 0 0 0 0 0 0 0 0 0 0 0 0 0 0 0 0
0 0 0 0 0 0 0 0 0 0 0 0 0 0 0 0 0 0 0 0 0 0 0 0 -0 -0 -0 -0 0 0 0 0 0 0 0 0 0 0 0 0 0 0 0 0
0 0 0 0 0 0 0 0 0 0 0 0 0 0 0 0 0 0 0 0 0 0 0 0 -0 -0 -0 -0 -0 0 0 0 0 0 0 0 0 0 0 0 0 0 0 0
0 0 0 0 0 0 0 0 0 0 0 0 0 0 0 0 0 0 0 0 0 0 0 0 -0 -0 -0 -0 -0 0 0 0 0 0 0 0 0 0 0 0 0 0 0 0
0 0 0 0 0 0 0 0 0 0 0 0 0 0 0 0 0 0 0 0 0 0 0 0 -0 -0 -0 -0 -0 -0 -0 0 0 0 0 0 0 0 0 0 0 0 0 0
Wind_Speed
3 4 3 4 4 3 3 6 6 7 9 11 12 12 12 11 11 11 10 10 9 8 7 7 7 6 6 6 6 6 7 7 7 6 6 7 7 7 7 8 9 8 8 8
4 5 5 4 3 1 1 2 5 7 4 6 10 9 11 12 13 12 11 11 10 10 9 8 7 6 6 5 5 5 7 6 5 5 6 6 6 7 7 8 8 8 8 8
4 6 4 3 3 1 1 2 7 7 7 13 12 13 14 13 12 12 12 11 11 10 8 7 6 6 6 5 5 6 6 5 5 5 5 5 6 7 7 6 7 7 7 7
1 4 2 5 2 2 4 2 2 6 12 14 12 9 7 8 11 12 12 11 10 9 8 6 6 5 5 5 5 5 5 5 5 5 5 5 6 6 5 5 5 5 5 5
2 1 4 4 1 2 3 2 3 11 13 11 13 9 5 6 9 10 10 10 9 8 8 7 6 6 6 5 5 5 5 5 5 5 5 5 5 5 4 5 5 4 4 5
2 2 4 5 2 3 6 1 3 11 16 15 12 7 6 9 11 11 11 9 9 8 8 7 6 6 6 5 5 4 4 4 4 5 5 5 4 4 3 4 4 4 4 4
3 3 5 5 2 3 2 7 8 11 15 14 7 6 11 14 12 11 11 10 9 8 7 6 6 6 6 5 4 4 5 5 4 4 4 4 3 3 4 4 5 4 5 4
2 3 6 3 2 3 5 5 10 10 10 8 9 13 14 14 13 13 12 10 9 8 6 5 5 6 6 4 4 5 5 5 4 3 3 3 3 3 4 5 5 4 4 4
4 6 5 2 2 3 7 10 7 9 10 14 14 15 15 13 13 12 11 9 7 7 7 5 5 6 7 5 5 6 5 5 4 4 3 3 4 4 4 4 3 3 3 3
1 3 1 2 5 5 8 9 10 13 14 15 16 15 14 13 12 11 9 8 7 8 7 6 5 6 6 6 6 6 6 4 4 5 5 5 4 4 4 3 3 3 3 3
1 1 4 4 6 9 11 13 14 13 12 14 17 16 14 13 12 10 8 7 7 8 7 7 6 6 6 6 6 6 5 5 5 5 6 5 5 4 3 1 3 5 4 3
6 5 4 4 5 12 14 14 15 15 12 12 14 15 13 11 9 9 9 8 8 8 7 7 7 6 5 6 7 6 5 5 4 4 4 4 4 4 7 5 6 6 6 5
4 4 5 8 8 11 12 13 14 14 15 14 12 13 12 10 9 9 9 9 9 8 7 7 7 6 5 5 6 6 5 5 4 4 4 3 3 4 2 4 5 4 4 4
7 9 9 7 9 11 15 15 14 13 12 12 12 12 12 10 10 10 10 9 8 8 8 8 7 6 5 6 6 5 5 5 5 4 4 4 3 3 3 3 1 1 2 1
6 9 10 11 12 14 14 15 15 13 12 11 11 12 12 11 11 10 9 9 8 8 8 8 7 6 5 6 6 5 4 3 3 3 3 4 4 3 3 3 2 1 1 2
10 12 14 15 15 15 15 15 15 14 13 12 11 11 11 11 10 9 8 9 9 8 8 7 7 5 5 6 5 4 3 4 4 3 3 3 3 3 3 3 2 2 2 2
13 13 15 15 15 15 14 13 13 13 13 12 12 12 12 11 10 9 8 8 8 8 7 7 6 5 5 6 5 3 3 2 3 2 2 2 3 3 3 3 3 3 3 4
11 12 13 16 15 15 14 13 13 13 13 12 13 12 12 11 11 10 9 8 7 6 6 7 7 6 5 6 5 3 3 2 2 2 2 2 2 2 3 3 4 4 3 2
12 13 12 13 14 14 13 13 13 13 12 13 13 11 10 10 10 9 8 9 9 7 6 7 10 7 6 6 5 3 3 3 2 2 2 3 2 2 2 2 3 3 3 2
12 14 14 14 14 14 14 14 14 12 12 12 12 11 10 10 10 9 9 8 7 6 6 7 7 6 5 5 6 4 4 4 4 3 3 3 3 2 2 3 3 3 3 3
15 15 15 15 14 15 15 15 14 13 12 13 13 12 11 10 9 9 8 6 6 7 7 9 6 5 4 4 5 3 4 4 4 4 4 4 3 3 3 3 3 3 3 3
13 13 15 15 14 13 13 13 13 14 13 12 12 11 11 10 9 8 8 6 7 9 7 5 4 6 6 6 3 3 4 4 4 4 4 4 4 4 4 4 3 3 3 4
10 12 14 14 14 13 13 12 13 13 13 13 12 12 11 9 8 8 6 5 6 10 7 5 6 9 9 5 3 3 4 4 4 5 5 5 5 5 4 4 4 4 4 4
9 11 13 12 13 13 13 12 12 11 11 11 11 11 10 8 6 6 6 10 12 12 7 7 11 11 9 4 3 3 3 4 4 5 5 5 5 5 5 5 4 4 4 5
9 10 12 14 14 11 12 11 11 10 11 8 10 10 9 7 7 6 7 9 12 12 6 8 12 12 7 4 4 3 3 4 4 5 5 5 5 5 5 5 5 5 5 5
9 10 11 11 10 9 10 10 9 9 9 8 8 8 7 6 7 7 7 9 11 11 7 5 6 8 5 5 5 4 4 4 4 5 5 5 6 6 5 6 7 6 5 6
8 8 8 8 8 9 9 9 9 9 9 9 9 8 8 7 7 8 9 8 8 8 7 6 6 6 6 5 5 5 4 4 4 5 5 5 5 5 6 7 6 5 5 6
Wind_Direction
249 267 255 256 259 243 208 192 188 193 176 186 175 161 152 145 140 137 133 130 125 119 114 108 103 99 95 91 87 88 88 85 82 78 76 76 72 70 72 76 79 76 73 64
324 314 312 301 294 277 227 156 138 133 156 153 143 139 148 152 149 146 142 137 133 130 126 123 120 117 109 106 102 98 95 91 87 81 78 77 75 76 78 77 75 73 70 68
303 310 340 314 309 278 187 160 155 176 174 144 149 163 164 160 155 153 147 143 140 139 137 136 134 131 127 123 114 106 102 99 91 85 80 79 88 83 84 83 82 78 73 72
287 353 290 256 266 94 94 61 140 135 144 156 153 144 139 148 150 149 147 144 143 141 139 138 133 129 126 121 116 112 108 105 99 94 90 86 87 88 89 89 90 87 80 72
156 243 280 287 287 122 110 56 116 129 131 123 116 102 110 141 143 144 143 142 140 138 136 135 133 132 124 120 116 113 112 110 107 104 100 94 90 90 92 94 90 88 87 79
163 183 246 252 251 133 98 124 167 142 142 143 137 151 171 152 137 134 134 135 135 133 130 135 138 131 125 123 118 120 123 120 112 109 109 105 102 95 92 99 101 97 82 73
188 212 257 255 221 118 151 216 168 158 155 157 168 163 143 138 133 134 134 135 136 134 135 141 140 132 131 134 137 139 126 112 104 105 109 105 91 91 104 101 96 88 81 63
161 203 248 279 131 178 202 142 143 147 150 140 121 120 128 133 134 136 136 136 138 136 136 142 144 136 132 139 137 125 117 111 107 105 106 98 93 88 100 107 101 93 82 58
200 225 255 305 155 141 126 126 130 137 136 132 128 132 133 135 138 139 140 140 140 140 140 144 147 141 139 145 131 120 111 109 101 83 69 82 95 98 92 96 102 101 94 81
271 275 290 80 86 87 112 120 126 132 133 134 133 135 135 137 139 140 142 143 140 136 133 134 137 133 136 134 125 120 119 115 105 92 78 66 67 79 96 107 115 119 118 111
246 234 74 66 101 110 107 111 116 121 127 134 134 137 138 139 142 144 143 138 135 135 136 137 133 130 134 131 125 121 117 111 106 100 99 84 69 60 82 85 164 148 150 149
209 205 151 150 136 124 120 124 128 127 123 130 135 136 137 138 140 140 138 134 134 137 139 139 135 134 134 134 129 123 118 119 120 119 113 108 101 65 41 59 80 111 137 142
184 149 125 127 125 122 122 126 129 130 133 132 132 134 134 135 136 136 136 138 142 144 144 142 136 135 137 136 129 129 135 140 138 139 138 134 128 121 93 27 41 71 107 129
136 117 110 124 126 121 122 122 121 122 126 129 132 133 132 131 135 138 142 145 144 140 140 138 136 141 147 136 130 133 136 143 147 155 159 158 159 156 150 147 132 331 337 267
127 124 130 126 120 121 124 125 126 128 129 129 133 136 137 138 142 143 141 140 137 137 140 141 142 151 152 137 133 137 135 140 144 150 158 164 166 169 171 173 180 207 309 315
118 118 125 130 132 133 135 136 137 140 140 139 140 142 142 141 140 140 140 141 141 146 149 147 152 161 149 135 131 130 140 151 142 139 144 152 162 170 180 186 196 212 232 247
135 140 140 141 142 144 145 146 145 146 146 145 146 143 140 139 140 142 145 147 148 150 151 151 159 162 151 145 141 144 149 153 144 133 143 154 163 177 187 187 198 219 236 238
152 152 151 150 150 149 148 147 147 147 148 148 146 144 145 149 152 154 152 147 142 145 157 162 164 163 161 162 158 158 161 169 163 167 172 174 179 183 181 188 199 210 234 260
146 147 148 149 149 149 149 149 149 148 148 149 149 149 150 151 152 151 148 147 150 161 180 176 169 166 171 177 168 169 173 178 181 185 182 187 188 191 188 190 202 212 218 224
153 151 150 150 148 148 149 150 149 149 151 149 148 148 149 152 152 150 149 156 171 177 176 167 164 166 176 181 169 166 177 185 184 184 182 186 196 205 210 210 210 215 215 206
156 154 153 152 150 150 151 151 151 153 154 153 154 156 157 157 155 151 150 163 191 173 164 163 162 171 181 183 174 167 176 184 185 188 194 199 205 212 218 218 213 212 207 204
156 155 155 152 151 151 152 152 152 153 154 156 157 156 155 158 159 158 166 174 180 171 162 166 170 183 187 181 171 178 189 190 193 195 197 198 199 206 213 213 214 216 211 209
153 153 152 154 153 152 150 153 155 157 159 161 162 162 163 165 164 162 175 184 169 172 168 178 188 192 188 177 178 192 202 198 197 200 200 199 200 201 206 212 216 215 210 210
147 151 151 148 145 148 155 159 157 158 159 160 162 163 161 161 168 176 170 174 177 176 178 189 194 197 189 185 190 199 207 204 202 205 205 205 207 207 210 213 217 218 215 211
148 148 150 151 155 159 160 156 152 154 157 160 164 166 166 166 168 176 170 173 179 177 183 195 198 199 194 195 202 206 209 211 209 204 205 208 211 212 214 214 215 215 214 212
152 157 161 163 160 158 159 160 162 165 163 164 169 172 171 169 169 168 171 176 177 182 183 184 191 195 200 206 213 216 217 223 221 213 212 212 211 209 212 216 219 215 213 213
148 149 150 152 156 159 161 164 167 170 171 170 171 176 175 172 170 172 172 175 177 184 185 184 187 192 202 211 218 223 223 220 218 217 215 214 210 209 213 214 213 213 211 211